Regional Weather Roundup
Issued by NWS

Home | Current Version | Previous Version | Text Only | Print | Product List | Glossary On
Versions: 1 2 3 4 5 6 7 8 9 10 11 12 13 14 15 16 17 18 19 20 21 22 23 24 25 26 27 28 29 30 31 32 33 34 35 36 37 38 39 40 41 42 43 44 45 46 47 48 49 50
000
ASUS44 KFWD 200710
RWRTX
NORTH TEXAS HOURLY WEATHER ROUNDUP
NATIONAL WEATHER SERVICE FORT WORTH TX
100 AM CST SAT DEC 20 2014

NOTE: "FAIR" INDICATES FEW OR NO CLOUDS BELOW 12,000 FEET WITH NO
SIGNIFICANT WEATHER AND/OR OBSTRUCTIONS TO VISIBILITY.

TXZ118-119-200800-
DALLAS/FORT WORTH METROPLEX

CITY           SKY/WX    TMP DP  RH WIND       PRES   REMARKS
DFW AIRPORT    CLOUDY    46  42  86 N7        30.20F
DALLAS LOVE    CLOUDY    47  43  86 N6        30.21F FOG
FTW MEACHAM    CLOUDY    46  42  86 N8        30.20F FOG
DAL-EXECUTIVE  CLOUDY    48  44  86 N5        30.19F
FTW-ALLIANCE   CLOUDY    45  41  86 N6        30.21F
FTW-SPINKS     CLOUDY    46  43  90 N3        30.21F
ARLINGTON      CLOUDY    48  42  80 N6        30.20F
GRAND PRAIRIE  CLOUDY    47  45  93 N6        30.22F
ADDISON        CLOUDY    46  46 100 N7        30.22F
MESQUITE       CLOUDY    47  45  90 NE3       30.21S
LANCASTER      CLOUDY    47  44  90 N5        30.21F FOG
$$

TXZ091>094-102>105-117-120-121-131>134-200800-
NORTH CENTRAL TEXAS

CITY           SKY/WX    TMP DP  RH WIND       PRES   REMARKS
SHRMAN/DENISON CLOUDY    44  43  97 CALM      30.22F
GAINESVILLE    CLOUDY    43  40  88 N3        30.24R
BOWIE          CLOUDY    42  40  93 NE3       30.21F
BRIDGEPORT     CLOUDY    45  40  85 CALM      30.24S
DECATUR        CLOUDY    43  39  86 N3        30.21S
DENTON         CLOUDY    45  40  82 N6        30.22R
MCKINNEY       CLOUDY    45  43  93 N6        30.21S
GREENVILLE     CLOUDY    46  43  87 CALM      30.21F
ROCKWALL       CLOUDY    46  46  99 N3        30.19F FOG
TERRELL        CLOUDY    49  45  86 NE6       30.20F
WAXAHACHIE     CLOUDY    47  47 100 N7        30.20F FOG
CLEBURNE       CLOUDY    45  45 100 N8        30.21F
GRANBURY       CLOUDY    47  44  91 N3        30.22F
$$

TXZ083>090-098>101-113>116-127>130-139>142-154-155-200800-
WESTERN NORTH TEXAS

CITY           SKY/WX    TMP DP  RH WIND       PRES   REMARKS
WICHITA FALLS  CLOUDY    43  39  86 E5        30.21F
WF-KICKAPOO    CLOUDY    44  39  83 CALM      30.22F
VERNON         CLOUDY    44  39  83 CALM      30.20F
ABILENE        CLOUDY    45  41  86 CALM      30.20F
ABILENE-DYESS  CLOUDY    45  37  75 W3        30.19S
BRECKENRIDGE   CLOUDY    46  41  83 E6        30.21S
GRAHAM         CLOUDY    44  40  86 SE5       30.20F
MINERAL WELLS  CLOUDY    45  40  82 CALM      30.20F
STEPHENVILLE   CLOUDY    45  42  89 N3        30.22F
COMANCHE       CLOUDY    44  44 100 CALM      30.20F
BROWNWOOD      CLOUDY    46  43  87 NE5       30.19F
COLEMAN        CLOUDY    46  44  91 N5        30.19F
BRADY          CLOUDY    46  43  87 E5        30.17F
$$

TXZ143>147-156>162-174-175-200800-
CENTRAL TEXAS

CITY           SKY/WX    TMP DP  RH WIND       PRES   REMARKS
WACO           CLOUDY    48  46  93 N7        30.19F
WACO-MCGREGOR  CLOUDY    48  43  81 N7        30.20F
HILLSBORO      CLOUDY    48  45  90 N5        30.19F FOG
CORSICANA      CLOUDY    48  44  86 NE7       30.20F
MEXIA          CLOUDY    46  45  94 N6        30.19F
HEARNE         CLOUDY    48  46  94 NW8       30.20F
CAMERON        CLOUDY    48  47  93 NE7       30.19F
TEMPLE         CLOUDY    48  41  76 N7        30.19S
KILLEEN        CLOUDY    46  45  98 N7        30.19F
KILLEEN-SKYLRK CLOUDY    46  39  76 N7        30.16S
FORT HOOD      CLOUDY    47  45  95 NW7       30.18F
GATESVILLE     MOCLDY    46  45  93 N5        30.21F
HAMILTON       CLOUDY    46  46 100 N5        30.20F
$$

TXZ095>097-106>112-122>126-135>138-148>153-164>167-200800-
EAST TEXAS

CITY           SKY/WX    TMP DP  RH WIND       PRES   REMARKS
PARIS          CLOUDY    45  41  87 NE3       30.21F
SULPHUR SPRNGS CLOUDY    46  45  95 N6        30.22F FOG
MOUNT PLEASANT CLOUDY    46  44  93 NE3       30.22F
MINEOLA        CLOUDY    46  46 100 CALM      30.21F FOG
TYLER          CLOUDY    47  44  90 NE6       30.18F FOG
LONGVIEW       CLOUDY    47  44  90 NE3       30.18F
MARSHALL       CLOUDY    48  46  90 CALM      30.21F
ATHENS         CLOUDY    45  45 100 N5        30.18F FOG
PALESTINE      CLOUDY    47  47  97 N7        30.20F FOG
JACKSONVILLE   CLOUDY    46  46  99 N7        30.19F FOG
HENDERSON      CLOUDY    46  46 100 NE3       30.20S FOG
NACOGDOCHES    CLOUDY    46  45  93 NE3       30.18S
LUFKIN         CLOUDY    50  46  86 N8        30.16F
$$

SUPPLEMENTAL OBSERVATIONS (CENTRAL)

CITY           SKY/WX    TMP DP  RH WIND       PRES   REMARKS
CADDO GRASSLND   N/A     45  43  93 N2          N/A
PAT MAYSE LAKE   N/A     45  43  93 N1          N/A
GREENVILLE       N/A     45  39  81 NE3         N/A
CEDAR HILL       N/A     46  43  87 VRB2        N/A
MCGREGOR         N/A     48  45  87 N3          N/A
$$

SUPPLEMENTAL OBSERVATIONS (WEST)

CITY           SKY/WX    TMP DP  RH WIND       PRES   REMARKS
MILLERS CREEK    N/A     45  39  81 E1          N/A
LBJ GRASSLAND    N/A     45  39  81 NE2         N/A
GRANBURY         N/A     45  41  87 N6          N/A
HAMBY            N/A     45  41  87 S2          N/A
IVIE RESERVOIR   N/A     46  41  81 NE5         N/A
COLORADO BEND    N/A     45  39  81 NE1         N/A
$$

SUPPLEMENTAL OBSERVATIONS (EAST)

CITY           SKY/WX    TMP DP  RH WIND       PRES   REMARKS
CLARKSVILLE      N/A     45  43  93 E3          N/A
TEXARKANA        N/A     45  41  87 E1          N/A
LINDEN           N/A     45  41  87 E2          N/A
GILMER           N/A     46  43  87 NE2         N/A
HENDERSON        N/A     46  43  87 NE7         N/A
LUFKIN           N/A     48  43  81 MISG        N/A
N SABINE NF      N/A     46  45  93 MISG        N/A
S SABINE NF      N/A     46  43  87 N3          N/A
$$

SUPPLEMENTAL OBSERVATIONS ARE A COLLECTION OF AUTOMATED INSTRUMENTS
THAT ARE MAINTAINED BY A VARIETY OF FEDERAL AND STATE AGENCIES.
CERTAIN ELEMENTS...SUCH AS HUMIDITY VALUES AND SUSTAINED WIND
SPEEDS...MAY BE APPROXIMATED.




USA.gov is the U.S. government's official web portal to all federal, state and local government web resources and services.